Location: Castiglione Fibocchi
(43.5333°N, 11.7667°E)
Time: 18:18:53
(UTC+00:00)

CZ-4B R/B - Pass Details

Date: 15 August 2020
Orbit: 702 x 803 km, 98.9° (Epoch: 18 September)

Event Time Altitude Azimuth Distance (km) Brightness Sun altitude
Rises 02:09:01 0° 6° (N) 3,104 7.4 -20.5°
Reaches altitude 10° 02:11:24 10° 358° (N) 2,178 6.4 -20.2°
Maximum altitude 02:15:43 36° 292° (WNW) 1,113 4.1 -19.6°
Enters shadow 02:16:40 33° 267° (W) 1,187 4.1 -19.5°
